Location: Oshawa
(43.9000°N, 78.8670°W)
Time: 12:11:19
(UTC-04:00)

CZ-4C R/B - Visible Passes

Search period start: 27 May 2016 00:00
Search period end: 06 June 2016 00:00
Orbit: 419 x 518 km, 97.5° (Epoch: 26 May)

Date Brightness Start Highest point End Pass type
(mag) Time Alt. Az. Time Alt. Az. Time Alt. Az.
27 May 4.6 00:53:25 29° NW 00:53:25 29° NW 00:55:18 10° NNW visible
28 May 4.0 00:23:51 42° N 00:23:51 42° N 00:26:08 10° N visible
28 May 4.5 23:54:17 25° NE 23:54:17 25° NE 23:56:32 10° NNE visible
29 May 5.5 01:28:18 13° WNW 01:28:18 13° WNW 01:29:00 10° NW visible
29 May 5.4 23:24:42 12° ENE 23:24:46 12° ENE 23:26:02 10° NE visible
30 May 4.6 00:58:43 27° NW 00:58:43 27° NW 01:00:35 10° NNW visible
31 May 3.8 00:29:08 45° N 00:29:08 45° N 00:31:31 10° N visible
31 May 4.3 23:59:33 28° NE 23:59:33 28° NE 00:01:57 10° N visible
01 Jun 5.6 01:33:34 11° WNW 01:33:34 11° WNW 01:34:01 10° WNW visible
01 Jun 5.2 23:29:57 13° ENE 23:30:03 13° ENE 23:31:43 10° NE visible
02 Jun 4.7 01:03:58 25° WNW 01:03:58 25° WNW 01:05:49 10° NNW visible
03 Jun 3.7 00:34:22 48° NNW 00:34:22 48° NNW 00:36:48 10° NNW visible
04 Jun 4.1 00:04:46 33° NE 00:04:46 33° NE 00:07:20 10° N visible
04 Jun 5.7 01:38:47 10° WNW 01:38:47 10° WNW 01:38:52 10° WNW visible
04 Jun 5.0 23:35:09 15° ENE 23:35:15 15° ENE 23:37:14 10° NNE visible
05 Jun 4.8 01:09:10 23° WNW 01:09:10 23° WNW 01:10:59 10° NW visible
